Regional Weather Roundup
Issued by NWS

Home | Current Version | Previous Version | Text Only | Print | Product List | Glossary Off
Versions: 1 2 3 4 5 6 7 8 9 10 11 12 13 14 15 16 17 18 19 20 21 22 23 24 25 26 27 28 29 30 31 32 33 34 35 36 37 38 39 40 41 42 43 44 45 46 47 48 49 50

659
ASUS44 KLIX 260705
RWRLA
LOUISIANA WEATHER ROUNDUP
NATIONAL WEATHER SERVICE NEW ORLEANS LA
100 AM CST MON JAN 26 2015

NOTE: "FAIR" INDICATES FEW OR NO CLOUDS BELOW 12,000 FEET WITH NO
      SIGNIFICANT WEATHER AND/OR OBSTRUCTIONS TO VISIBILITY.
      SKY/WX - SKY CONDITION AND SIGNIFICANT WEATHER.
      TMP - AIR TEMPERATURE.    DP   - DEWPOINT TEMPERATURE.
      RH  - RELATIVE HUMIDITY.  PRES - PRESSURE.
      HX  - HEAT INDEX.         WCI  - WIND CHILL INDEX.

*  THESE STATIONS ARE NOT NWS OR FAA STATIONS AND ARE NOT UNDER
   NWS QUALITY CONTROL.

LAZ040-048-061>063-065-066-069-260800-
SOUTHEAST LOUISIANA

CITY           SKY/WX    TMP DP  RH WIND       PRES   REMARKS
N.O. AUDUBON   NOT AVBL
N.O. INTL ARPT CLEAR     50  38  63 W9        30.00S
N.O. LAKEFRONT CLEAR     55  43  63 W14       30.00R
N.O. DOWNTOWN* FAIR      54  36  50 W6        30.00R
SLIDELL        CLEAR     50  38  63 CALM      29.98R
BATON ROUGE    CLEAR     53  31  42 NW9G18    30.04R
BOOTHVILLE     CLEAR     53  45  74 W10       30.01R
BELLE CHASSE   CLEAR     48  41  76 W3        30.00R
BOGALUSA*        N/A     44  37  75 W5        29.99R
GALLIANO*      SUNNY     50  44  79 MISG      30.02S
NEW ROADS*     FAIR      51  33  51 NW10      30.05R
GONZALES*      FAIR      54  33  44 NW9       30.03R
HAMMOND*       CLEAR     50  34  53 NW9       30.01R
HOUMA*         CLEAR     49  41  72 W5        30.02S
PORT FOURCHON* SUNNY     55  45  67 NW12G21   30.06S

$$

LAZ041-044-053-054-260800-
SOUTHWEST LOUISIANA

CITY           SKY/WX    TMP DP  RH WIND       PRES   REMARKS
LAKE CHARLES   CLEAR     55  28  35 NW16      30.09R
LAFAYETTE      CLEAR     51  32  48 NW9       30.07R
PATTERSON      CLEAR     52  34  50 NW9G18    30.06R
SALT POINT       N/A     53  42  66 NW8       30.05R
NEW IBERIA     CLEAR     49  35  58 NW9       30.07R
CHENAULT AIRPK CLEAR     54  29  38 NW14      30.10R

$$

LAZ027-028-260800-
CENTRAL LOUISIANA

CITY           SKY/WX    TMP DP  RH WIND       PRES   REMARKS
FORT POLK      CLEAR     48  30  50 NW9       30.09R
ALEXANDRIA INT CLEAR     49  32  52 NW7       30.07R
ALEXANDRIA     CLEAR     51  31  46 NW7G16    30.07R

$$

LAZ001-002-260800-
NORTHWEST LOUISIANA

CITY           SKY/WX    TMP DP  RH WIND       PRES   REMARKS
SHREVEPORT     CLEAR     46  32  58 NW12      30.11R
BARKSDALE AFB  CLEAR     46  32  57 NW12      30.11R
DTN SHREVEPORT CLEAR     48  31  51 NW12      30.11R

$$

LAZ014-016-260800-
NORTHEAST LOUISIANA

CITY           SKY/WX    TMP DP  RH WIND       PRES   REMARKS
MONROE         CLEAR     46  34  62 NW8       30.06R
TALLULAH       CLEAR     48  34  58 NW9       30.03R

$$




USA.gov is the U.S. government's official web portal to all federal, state and local government web resources and services.